Temp
18 19 19 18 19 20 20 21 21 21 22 22 23 23 23 23 23 22 22 23 21 21 21 21 21 21 20 20 20 19 19 18 18 19 19 19 20 20 21 21 21 21 20
18 18 20 20 19 19 19 19 20 20 20 22 22 22 24 24 24 23 22 22 22 20 20 20 21 20 20 20 20 20 19 19 18 18 18 18 19 20 20 20 20 20 19
18 18 18 21 23 25 25 23 17 19 20 22 21 21 22 23 24 23 23 23 23 22 21 21 21 20 20 20 20 20 19 19 19 18 17 18 19 19 19 19 19 19 18
17 18 19 19 21 22 22 19 20 19 19 20 20 21 21 21 23 23 23 23 23 23 22 21 21 21 21 21 20 20 19 19 18 18 17 17 17 18 18 18 18 18 18
18 17 19 20 18 16 16 16 16 17 18 19 19 19 19 20 21 21 22 22 23 22 21 21 21 21 21 21 21 20 20 18 19 18 17 17 17 17 17 18 17 18 18
17 17 17 18 18 18 18 17 17 17 18 18 18 18 19 19 21 22 21 22 22 21 22 22 21 21 21 21 21 21 21 20 18 18 18 17 17 17 17 17 17 17 17
17 17 17 17 18 18 19 18 16 16 17 17 18 17 18 19 19 20 19 20 22 22 22 22 22 22 22 22 22 21 21 21 21 20 19 20 20 20 19 17 17 17 17
17 17 17 17 17 17 17 17 16 17 17 17 18 18 18 19 19 20 20 21 22 21 22 22 22 22 22 22 22 22 21 21 21 21 21 21 22 22 20 20 19 17 17
16 16 17 17 17 17 17 17 17 17 17 17 18 18 19 19 20 20 21 22 21 21 20 20 19 19 23 23 21 21 21 22 22 21 21 22 21 21 20 19 17 16 16
15 16 17 17 17 17 17 17 18 18 18 18 19 19 19 19 19 20 20 20 20 19 19 20 20 20 20 23 22 21 20 22 22 22 21 21 21 20 19 19 19 17 17
17 17 17 17 17 17 17 17 18 18 18 18 18 18 18 20 19 19 20 19 19 18 19 20 21 20 21 21 22 22 22 22 22 21 21 21 20 20 20 19 19 18 18
17 17 17 17 17 17 17 18 18 18 18 18 17 16 16 17 18 18 18 18 18 18 18 18 18 19 20 19 18 19 21 20 20 19 18 18 19 20 20 20 20 20 19
17 17 17 18 18 18 18 18 18 17 17 16 16 15 15 15 16 16 16 17 17 17 17 16 16 18 18 18 18 18 18 19 19 18 18 18 19 20 20 19 19 19 18
17 17 18 18 18 19 18 18 18 18 17 17 16 15 15 15 15 15 15 16 16 16 16 16 15 16 16 16 16 17 17 17 17 16 17 18 18 18 18 18 17 17 16
16 16 17 17 18 19 19 18 18 18 18 17 17 16 16 15 15 15 16 16 15 14 15 14 14 14 14 13 13 14 15 16 16 16 16 16 17 17 17 17 16 16 16
16 16 16 17 18 18 18 18 18 18 18 18 17 17 16 16 15 15 15 14 13 13 13 12 12 12 12 12 12 13 13 14 15 15 16 16 16 17 17 16 16 16 16
16 16 16 17 17 17 17 17 17 18 18 18 18 17 17 16 15 15 15 14 13 13 12 12 12 12 12 12 12 12 12 13 13 14 15 15 16 16 16 16 16 16 16
16 16 16 17 17 17 17 17 17 16 16 17 17 17 17 16 15 15 14 13 13 12 12 12 12 13 12 12 12 12 12 13 13 14 14 14 15 15 16 16 16 16 16
16 16 16 17 17 17 16 16 16 16 16 16 16 16 16 15 14 14 13 13 12 13 12 12 12 11 12 12 12 12 13 13 13 14 14 14 15 15 15 15 16 16 16
16 16 17 17 17 17 17 16 16 16 16 16 15 15 15 14 13 13 13 12 12 12 12 11 11 11 11 11 12 12 12 12 13 14 14 14 14 15 15 15 15 16 15
16 16 17 17 17 17 16 16 16 16 16 16 15 15 14 14 14 12 12 12 12 12 12 12 11 12 11 12 12 12 12 12 12 12 13 14 15 15 15 15 16 16 16
16 17 17 17 17 17 17 16 16 16 16 16 16 15 15 14 14 13 12 12 12 12 11 11 11 11 11 11 11 11 11 12 12 12 12 12 13 14 15 15 15 15 16
17 16 16 16 16 16 16 16 15 15 16 16 16 16 15 14 14 14 14 13 12 12 11 11 11 12 12 12 12 12 11 11 12 12 12 12 12 12 13 14 15 15 15
16 16 15 16 16 15 15 15 16 16 16 16 16 17 16 16 15 15 14 13 13 12 12 12 12 12 12 12 12 12 12 12 11 11 12 12 12 12 11 11 12 13 15
16 16 16 15 15 15 14 15 16 15 15 15 16 16 17 16 17 16 15 14 13 12 12 12 12 12 12 12 12 12 12 12 12 12 12 12 11 12 11 11 11 11 11
14 14 13 13 13 13 12 12 13 14 15 15 15 15 16 16 16 16 16 15 14 13 12 12 12 12 12 12 11 11 11 11 12 12 12 11 12 12 11 11 11 10 10
Height
728 729 731 734 736 735 730 727 736 747 755 759 762 765 766 767 768 770 772 774 777 780 782 785 788 791 793 796 798 798 799 802 801 800 800 800 799 798 798 799 798 799 800
720 721 720 721 725 726 723 724 729 737 749 756 759 759 757 758 760 762 765 768 771 774 777 780 781 785 788 790 793 794 794 795 798 798 798 798 797 796 795 796 796 797 798
714 715 713 709 707 704 698 699 712 727 743 747 749 751 750 750 754 756 758 761 764 767 772 774 776 780 783 786 788 789 790 790 791 793 794 795 795 795 793 793 793 795 797
713 714 714 712 706 702 699 700 703 716 728 739 739 741 742 744 746 749 751 753 757 762 766 768 771 775 777 780 781 783 787 787 787 786 788 790 791 791 791 791 792 793 794
708 711 707 710 711 716 715 718 716 734 737 732 733 737 741 740 740 743 745 748 752 756 761 763 766 769 772 775 776 778 781 783 785 784 783 785 785 786 786 786 788 790 792
704 706 711 715 713 715 720 719 725 730 731 729 732 732 730 731 733 737 737 743 750 753 755 758 761 764 767 770 771 773 777 776 779 781 780 780 780 781 782 782 784 786 789
702 707 712 714 714 714 716 721 724 727 725 724 725 730 727 725 729 733 737 742 744 748 750 753 756 759 762 765 765 767 770 772 773 775 775 774 774 776 778 779 779 779 780
708 710 713 715 716 717 718 719 717 716 714 718 720 723 723 719 725 730 733 737 742 743 744 748 750 754 757 758 760 760 761 764 767 768 768 769 769 770 772 772 774 776 777
717 717 712 712 710 709 707 706 707 706 708 712 711 715 715 720 721 726 730 731 732 733 741 744 745 749 750 752 753 753 755 755 757 761 762 762 763 766 767 769 769 772 773
715 715 713 709 705 705 705 704 704 705 709 710 712 714 712 713 715 717 724 727 729 735 743 744 743 744 747 747 747 747 748 747 750 753 753 755 757 759 761 763 764 766 770
713 713 710 708 707 706 706 708 709 710 709 711 711 707 707 709 711 717 720 725 727 732 738 738 742 741 742 743 742 741 740 743 746 746 747 748 749 750 752 754 756 758 761
717 716 712 713 712 713 714 713 712 711 711 711 711 712 709 710 713 715 718 721 724 726 730 733 734 736 736 739 741 740 734 741 741 743 742 743 742 742 742 743 747 750 752
724 721 718 718 717 719 719 718 715 716 717 713 714 712 713 714 716 718 719 720 722 726 728 731 732 731 732 734 733 733 732 735 735 736 734 734 734 733 734 736 737 741 745
726 725 722 721 720 720 718 719 718 718 716 713 715 717 719 720 720 725 722 722 721 722 725 727 729 728 728 728 727 726 726 728 729 729 728 727 727 727 726 727 728 730 736
730 728 726 724 722 719 720 720 717 719 718 718 720 719 721 726 727 725 723 722 722 721 720 723 723 723 722 721 722 721 720 721 722 721 722 721 721 720 720 718 719 724 726
732 730 728 726 726 726 722 718 719 719 720 720 719 720 720 721 722 724 724 721 719 719 721 720 720 721 720 718 716 717 716 716 715 715 715 713 713 714 714 711 716 718 717
733 731 728 726 725 724 722 720 721 720 719 720 719 717 718 720 720 720 722 719 720 717 720 720 720 720 716 712 714 714 710 710 710 708 707 706 705 706 707 707 708 709 711
734 732 730 730 729 726 724 721 718 719 718 717 718 719 717 720 719 722 722 718 717 716 717 718 718 716 714 712 712 708 706 704 702 701 700 699 698 698 699 700 701 702 702
733 732 730 729 728 725 722 721 722 722 722 721 721 719 718 719 718 718 718 718 716 716 716 715 713 713 712 711 708 705 703 700 698 695 693 691 690 690 689 690 691 692 694
736 735 732 728 725 724 723 723 726 726 723 720 717 718 717 717 717 717 718 717 715 715 715 715 713 713 711 708 705 701 698 694 691 688 685 683 682 682 680 680 680 681 681
733 732 731 730 729 730 729 727 725 723 720 718 716 715 715 715 715 715 715 715 712 711 711 711 710 708 707 705 702 698 695 692 688 684 681 677 675 672 671 670 671 669 671
731 730 730 729 728 725 723 722 720 716 714 714 714 713 712 712 711 710 708 706 706 707 707 707 706 705 703 701 699 697 694 691 688 684 678 673 669 666 664 662 661 660 661
730 729 728 727 725 723 720 718 716 714 712 709 708 707 705 705 704 703 702 701 701 702 702 702 702 702 701 700 696 693 692 690 688 684 678 673 667 663 658 653 651 652 649
728 728 727 724 722 720 717 714 712 709 706 703 701 700 699 700 700 699 698 697 696 696 698 697 696 697 697 696 694 692 690 689 686 682 678 673 668 663 657 652 648 645 641
724 723 721 720 718 716 713 710 706 703 699 696 695 695 695 695 694 693 692 692 692 692 692 691 690 691 691 691 689 688 686 686 684 680 677 673 669 664 659 655 650 645 640
722 720 719 718 716 713 710 707 704 699 695 693 692 690 688 688 688 688 687 687 686 686 686 684 683 684 684 685 684 683 682 681 680 678 675 673 669 664 661 658 655 651 647
Wind_Speed
13 19 23 25 13 15 21 25 26 31 34 37 39 38 37 36 35 34 32 30 28 29 30 27 27 24 22 19 18 17 16 16 9 10 14 17 13 11 11 12 11 12 12
10 14 20 25 27 13 8 10 16 20 31 33 38 36 33 31 32 30 30 29 28 27 26 25 23 21 21 18 17 16 15 15 14 11 13 15 14 12 11 11 9 8 8
19 20 18 25 20 3 11 19 13 23 31 39 36 35 33 32 28 27 27 25 25 26 25 25 22 20 20 19 20 19 18 16 15 14 10 10 9 9 8 8 7 6 5
24 29 26 19 18 17 15 11 21 18 36 33 28 32 30 28 26 24 24 24 24 25 25 24 21 21 22 22 22 21 20 18 17 16 14 14 13 11 9 9 8 9 8
26 30 28 30 21 15 17 27 29 39 35 24 20 16 12 13 14 15 19 22 23 24 24 22 22 21 21 22 21 21 21 19 14 14 11 9 10 11 10 9 12 12 11
15 14 18 23 25 16 15 16 29 25 22 17 16 20 20 18 16 23 13 17 21 23 22 23 23 22 23 22 21 21 22 21 20 12 10 9 14 14 15 14 11 10 3
12 12 10 18 24 24 16 18 21 23 18 14 12 17 13 11 17 22 14 23 24 23 22 22 23 25 25 24 22 23 25 24 24 24 20 21 17 20 19 16 18 16 13
15 10 4 7 12 15 17 20 16 14 12 15 18 18 14 9 13 24 18 22 26 21 18 23 24 25 26 27 24 24 25 27 29 29 28 27 23 19 18 19 19 17 17
14 11 11 7 1 4 4 3 4 5 7 11 13 14 14 19 18 25 24 17 15 12 20 18 16 24 25 24 23 26 26 27 26 26 26 24 25 22 19 17 17 13 9
15 13 11 12 14 12 4 2 1 3 6 6 9 13 16 14 14 17 17 10 9 8 18 19 16 16 22 25 24 27 26 30 28 25 26 25 23 23 22 23 22 15 11
15 14 18 17 15 12 8 3 3 1 2 3 4 5 3 7 13 14 11 6 6 8 15 17 26 28 28 27 25 25 25 23 25 24 23 25 25 25 26 27 28 25 18
18 15 16 16 15 13 9 6 3 1 2 3 7 10 9 10 10 10 9 8 8 9 10 10 15 24 28 22 21 24 16 21 24 24 20 25 25 27 29 30 31 31 31
14 15 14 13 12 10 11 7 8 8 8 11 11 12 13 14 13 10 8 4 3 5 8 7 10 17 23 23 19 20 17 21 24 23 25 28 32 31 27 28 29 31 31
12 12 11 10 11 11 9 6 8 9 10 11 10 10 7 8 8 7 8 5 3 2 5 8 10 12 13 16 18 20 22 26 26 24 25 27 28 28 26 27 26 29 25
8 10 9 8 8 9 9 7 2 4 7 7 7 9 9 7 6 6 7 7 8 8 8 6 9 11 12 12 15 17 17 20 24 27 25 24 23 23 25 25 23 21 22
7 9 8 6 5 4 5 6 4 4 4 3 3 3 5 6 3 4 7 8 8 8 6 8 9 10 10 13 16 18 17 17 21 21 23 23 21 22 20 17 23 24 21
7 9 8 7 8 9 7 4 2 2 3 4 4 2 2 1 1 6 8 6 8 9 9 9 9 11 12 14 17 18 18 20 20 21 21 20 20 20 20 19 21 22 21
5 8 8 8 8 10 10 9 4 5 7 7 6 7 7 6 4 6 7 6 6 9 8 8 9 11 12 14 18 18 20 22 21 21 22 21 22 21 20 20 22 21 23
6 9 8 8 10 11 10 10 9 7 4 5 6 3 6 8 6 6 5 6 5 7 8 11 12 13 15 17 19 20 21 21 22 22 21 22 23 23 23 25 26 27 26
4 6 8 10 10 10 11 10 8 8 8 6 5 5 4 6 7 6 6 8 9 9 9 9 10 11 13 16 18 18 18 19 19 21 23 24 25 24 23 24 25 25 26
7 8 9 8 8 9 9 9 8 7 8 10 8 6 6 7 9 9 9 10 11 11 12 12 12 13 11 14 13 16 17 18 19 18 20 22 22 23 23 23 24 23 28
8 8 10 13 15 16 16 15 15 13 13 12 12 9 8 10 12 12 12 11 10 12 13 14 14 13 12 10 12 14 16 17 20 22 22 20 21 25 24 24 24 24 23
8 10 13 15 16 18 20 18 16 15 17 17 16 15 14 15 15 15 14 13 12 15 15 14 14 13 11 10 9 11 13 16 19 18 20 19 18 18 20 21 23 22 22
9 10 12 15 17 19 19 19 21 22 20 20 20 20 19 19 19 19 17 16 15 16 17 16 16 16 16 15 12 11 11 13 14 18 13 14 15 17 13 11 14 19 22
11 12 14 15 17 19 21 19 20 23 21 20 22 24 25 24 22 23 21 18 19 18 18 20 17 16 16 15 16 14 13 12 13 12 12 13 12 15 14 12 14 15 12
15 15 15 16 18 20 20 22 24 23 20 20 22 24 26 26 28 27 24 20 20 20 19 16 17 16 14 15 15 13 13 12 11 10 12 9 9 11 8 8 10 15 17
Wind_Direction
248 257 238 225 175 192 205 208 227 235 237 238 242 239 238 241 241 241 242 242 240 241 244 245 247 250 247 246 248 245 248 242 251 278 279 289 278 275 297 267 266 269 268
247 217 221 207 205 215 197 217 235 241 238 242 243 238 238 240 238 236 235 236 237 237 239 237 236 239 241 241 241 237 236 239 241 262 278 285 275 274 276 260 260 264 266
188 180 161 167 164 180 273 278 248 239 244 234 235 241 239 238 238 240 237 237 238 232 237 236 232 234 235 238 240 238 237 231 229 240 255 270 281 276 266 263 248 248 249
193 176 181 202 225 184 166 222 227 241 228 224 224 225 228 234 231 230 230 233 235 234 233 232 232 236 236 235 237 241 243 240 232 227 239 256 262 269 265 251 259 264 262
199 188 206 226 237 261 191 197 201 220 226 229 207 206 220 216 211 221 238 236 232 230 231 230 233 239 241 242 241 242 240 236 231 225 217 227 233 231 231 234 236 248 255
143 181 199 216 237 251 214 198 209 219 208 206 226 234 216 221 224 226 216 243 242 234 231 233 237 241 243 246 244 249 251 241 232 221 220 216 233 237 238 232 225 220 234
135 139 199 223 225 234 230 231 220 212 211 218 214 217 208 213 230 222 220 247 245 242 238 243 244 243 245 245 245 246 249 250 249 252 241 243 246 257 249 233 228 219 217
52 70 145 193 201 208 209 217 224 228 230 235 231 237 233 217 227 213 236 238 237 237 252 247 248 251 250 250 248 246 244 246 247 245 250 258 256 255 252 250 243 232 236
36 41 52 45 32 209 200 213 232 234 239 246 247 243 243 250 232 223 236 242 237 255 260 256 256 261 258 256 248 248 250 249 249 250 252 255 259 257 248 237 222 195 219
28 31 39 36 30 21 355 4 353 273 286 260 241 249 257 259 252 226 214 206 191 226 244 260 284 294 280 264 255 247 238 249 250 245 245 248 246 246 240 237 232 205 219
28 32 43 42 36 30 28 346 278 273 114 85 108 86 123 177 161 164 171 185 201 233 250 267 263 276 294 287 270 254 244 257 264 259 252 252 246 240 237 234 234 227 214
41 46 42 36 44 48 46 54 65 139 162 124 114 88 93 139 162 186 208 221 255 257 276 281 269 264 275 279 266 264 258 262 266 268 261 255 246 240 240 237 238 239 240
35 35 37 40 47 50 53 58 76 86 84 76 89 95 91 86 91 106 117 138 198 241 275 276 257 259 261 265 269 273 271 255 254 253 250 253 254 253 248 241 237 240 244
40 29 24 30 46 48 43 43 66 69 74 74 84 99 103 104 94 83 77 74 54 334 279 275 281 275 267 274 273 264 266 270 268 257 248 251 257 252 245 239 230 230 227
39 30 36 49 42 32 28 15 92 78 69 81 90 102 109 103 85 61 45 32 9 354 345 331 336 337 332 324 305 291 278 271 260 257 253 256 252 245 237 231 222 212 210
28 25 27 38 35 24 17 40 152 120 93 64 89 85 118 127 106 28 16 23 39 30 30 11 353 342 328 324 318 311 299 273 259 252 252 249 246 241 239 236 227 216 217
12 11 29 59 46 29 7 -0 23 212 250 252 250 231 253 240 293 347 351 27 27 27 22 5 347 335 331 328 314 297 289 296 283 267 258 250 246 245 241 231 225 219 224
22 27 48 53 41 32 27 18 335 296 305 312 283 239 236 240 245 302 330 1 11 5 358 337 320 325 322 316 310 301 295 290 284 279 268 257 250 244 241 233 229 228 228
24 25 29 27 33 27 25 25 27 25 355 295 284 274 243 231 245 276 304 317 326 329 325 322 320 323 323 316 315 308 299 288 278 274 264 255 249 241 237 236 239 236 238
35 30 24 26 24 22 21 14 4 357 357 351 334 305 262 224 247 261 286 301 299 295 297 299 304 313 320 328 326 325 318 317 307 284 268 259 256 249 243 240 237 236 232
3 8 13 12 360 353 354 334 310 303 314 330 326 313 290 262 266 260 277 282 287 282 282 290 300 310 326 337 352 354 341 336 331 320 305 286 268 250 251 249 242 242 242
333 342 350 351 346 339 330 318 331 300 292 294 303 302 277 261 266 272 275 284 288 271 275 275 287 297 312 318 334 342 345 349 345 341 333 314 295 274 263 256 251 243 249
327 326 332 336 337 330 321 318 311 318 289 279 281 285 286 284 280 281 282 284 272 267 278 266 270 277 294 304 321 329 332 335 337 335 335 336 334 320 298 269 252 248 240
320 314 313 317 322 320 315 307 309 311 308 278 275 275 274 277 274 273 273 274 281 277 270 267 262 270 282 287 291 304 321 329 330 335 341 348 359 351 341 335 303 275 258
314 304 303 307 315 318 316 312 313 312 305 290 274 274 275 272 272 274 277 276 272 270 276 267 262 272 275 285 285 286 297 304 315 328 331 346 351 10 20 20 42 37 40
344 337 334 333 333 335 332 325 317 315 314 303 293 285 276 277 273 268 271 273 268 267 272 271 263 267 275 281 282 284 294 292 297 311 326 333 352 6 356 20 26 39 45